Regional Weather Roundup
Issued by NWS

Home | Current Version | Previous Version | Text Only | Print | Product List | Glossary On
Versions: 1 2 3 4 5 6 7 8 9 10 11 12 13 14 15 16 17 18 19 20 21 22 23 24 25 26 27 28 29 30 31 32 33 34 35 36 37 38 39 40 41 42 43 44 45 46 47 48 49 50
477
ASUS44 KJAN 160610
RWRMS

MISSISSIPPI HOURLY WEATHER ROUNDUP
NATIONAL WEATHER SERVICE JACKSON MS
100 AM CDT TUE JUL 16 2019

NOTE: "FAIR: INDICATES FEW OR NO CLOUDS BELOW 12,000 FEET WITH NO
SIGNIFICANT WEATHER AND/OR OBSTRUCTIONS TO VISIBILITY.

MSZ001>002-007>008-010>013-018>021-025>028-034>036-160700-
NORTHWEST MISSISSIPPI

CITY           SKY/WX    TMP DP  RH WIND       PRES   REMARKS
BATESVILLE     CLOUDY    77  73  88 S10G17    29.98S
CLARKSDALE     MOCLDY    77  77 100 S9        29.97F
CLEVELAND      CLOUDY    77  77 100 S10       29.98S
GREENWOOD      FAIR      77  74  90 S9        30.00S
6HR MIN TEMP:  77; 6HR MAX TEMP:  82;

GREENVILLE     CLOUDY    78  74  87 S13       29.97S
6HR MIN TEMP:  78; 6HR MAX TEMP:  82;

OLIVE BRANCH     N/A     72 N/A N/A S10       29.97S
OXFORD         CLOUDY    75  72  88 S10       30.02S
TUNICA           N/A     73  72  94 S7        29.94S
WINONA         CLOUDY    74  74 100 S7        30.02F
$$

MSZ003>006-009-014>017-022>024-029>033-037>039-160700-
NORTHEAST MISSISSIPPI

CITY           SKY/WX    TMP DP  RH WIND       PRES   REMARKS
ABERDEEN       FAIR      73  70  88 S6        30.06S
COLUMBUS AFB   FAIR      76  73  93 S3        30.04F
6HR MIN TEMP:  76; 6HR MAX TEMP:  83; 6HR PCP: TRACE;

CORINTH        CLOUDY    77  73  88 S9        30.02S
GOLDN TRIANGLE FAIR      76  75  97 S8        30.05F
STARKVILLE       N/A     73  72  94 S6        30.06F
TUPELO         MOCLDY    77  73  87 S10         N/A
6HR MIN TEMP:  74; 6HR MAX TEMP:  77; 6HR PCP: TRACE;

$$

MSZ040-058-160700-
CENTRAL MISSISSIPPI

CITY           SKY/WX    TMP DP  RH WIND       PRES   REMARKS
JACKSON INTL   MOCLDY    78  74  87 S8        30.03F
6HR MIN TEMP:  76; 6HR MAX TEMP:  82;

JACKSON HAWKNS CLOUDY    78  76  93 S9        30.04S
6HR MIN TEMP:  77; 6HR MAX TEMP:  83;

MADISON        CLOUDY    75  75 100 S7        30.03S
MERIDIAN KEY   FAIR      78  75  90 S7        30.06F
6HR MIN TEMP:  76; 6HR MAX TEMP:  83;

MERIDIAN NAS   FAIR      76  74  93 VRB5      30.07F
6HR MIN TEMP:  76; 6HR MAX TEMP:  82;

RAYMOND        CLOUDY    79  79 100 S7        30.02F
VICKSBURG VKS  PTCLDY    77  77 100 S7        30.01F
$$

MSZ059>079-160700-
SOUTH MISSISSIPPI

CITY           SKY/WX    TMP DP  RH WIND       PRES   REMARKS
HATTIESBURG    MOCLDY    77  75  93 CALM      30.08S
6HR MIN TEMP:  75; 6HR MAX TEMP:  78; 6HR PCP: TRACE;

LAUREL         CLOUDY    76  76  98 S5        30.07S
MCCOMB         CLOUDY    78  77  96 S12       30.04F
6HR MIN TEMP:  77; 6HR MAX TEMP:  83; 6HR PCP:  0.01;

NATCHEZ        FAIR      77  75  93 S8        30.03S
6HR MIN TEMP:  76; 6HR MAX TEMP:  78; 6HR PCP:  0.01;

PINE BELT      MOCLDY    75  75 100 S3        30.08S FOG
6HR MIN TEMP:  73; 6HR MAX TEMP:  76; 6HR PCP:  0.01;

$$

MSZ080>082-160700-
COASTAL MISSISSIPPI

CITY           SKY/WX    TMP DP  RH WIND       PRES   REMARKS
BILOXI         FAIR      82  78  90 S10       30.07S HX  91
6HR MIN TEMP:  82; 6HR MAX TEMP:  83;

PASCAGOULA     FAIR      82  76  81 S3        30.07S
6HR MIN TEMP:  82; 6HR MAX TEMP:  85;

GULFPORT       FAIR      82  78  88 S9        30.06S HX  91
6HR MIN TEMP:  82; 6HR MAX TEMP:  84;

$$

LAZ007>009-015>016-023>026-160700-
NORTHEAST LOUISIANA

CITY           SKY/WX    TMP DP  RH WIND       PRES   REMARKS
BASTROP        CLOUDY    75  75  98 S5        29.99F
TALLULAH/VBURG FAIR      79  76  90 S7        30.01S
6HR MIN TEMP:  78; 6HR MAX TEMP:  82; 6HR PCP: TRACE;

VIDALIA        MOCLDY    79  77  94 S9        30.01S
$$




USA.gov is the U.S. government's official web portal to all federal, state and local government web resources and services.